Reid Restricted Landing Area

Jump to: basic info | weather | runways | comments

Related pages: nearby airports | nearby navaids | notams | map

Basic information (top)

Codes: 6IL6
Location: lon 42.118401, lat -88.407898, elev 920 ft / 280 m msl
Status: small_airport

Weather (top)

Current conditions for Dupage Airport 15nm (27km) SSE (rec'd 2014/09/19 07:08Z):

KDPA 190708Z 08004KT 2 1/2SM BR CLR 13/12 A3015 RMK AO2 T01330122

Airport forecast for Dupage Airport 15nm (27km) SSE (rec'd 2014/09/19 06:39Z):

TAF KDPA 190536Z 1906/2006 08004KT 4SM BR FEW005 
     FM191000 10004KT 3SM BR FEW005 
     FM191400 18009KT P6SM SCT250 
     FM191700 18012G18KT P6SM SCT250

Runways (top)

E/W: 3,000 x 105 ft (914 x 32 m) — grass — not lighted

N/S: 2,100 x 105 ft (640 x 32 m) — grass — not lighted

Latest comments (top)

No comments yet for Reid Restricted Landing Area

More... (top)

See also NOTAMs and nearby airports and navaids, or visit the Reid Restricted Landing Area page at the main OurAirports website..